Regional Weather Roundup
Issued by NWS

Home | Current Version | Previous Version | Graphics & Text | Print | Product List | Glossary Off
Versions: 1 2 3 4 5 6 7 8 9 10 11 12 13 14 15 16 17 18 19 20 21 22 23 24 25 26 27 28 29 30 31 32 33 34 35 36 37 38 39 40 41 42 43 44 45 46 47 48 49 50

101
ASUS43 KTOP 211908
RWRKS

WEATHER ROUNDUP FOR KANSAS
NATIONAL WEATHER SERVICE GOODLAND KS
100 PM CST TUE NOV 21 2017

NOTE:  "FAIR" INDICATES FEW OR NO CLOUDS BELOW 12,000 FEET WITH NO
SIGNIFICANT WEATHER AND/OR OBSTRUCTIONS TO VISIBILITY.

KSZ001>006-013>018-027>032-041>047-212000-
NORTHWEST KANSAS

CITY           SKY/WX    TMP DP  RH WIND       PRES   REMARKS
GOODLAND       MOSUNNY   47  26  44 N17G28    30.29S
HAYS           SUNNY     49  25  39 N23G29    30.26
HILL CITY      SUNNY     48  25  40 N23       30.30R
RUSSELL        SUNNY     48  27  44 N21G31    30.24R
$$

KSZ061>065-074>080-084>089-212000-
SOUTHWEST KANSAS

CITY           SKY/WX    TMP DP  RH WIND       PRES   REMARKS
DODGE CITY     SUNNY     52  27  38 N23G36    30.22R
ELKHART        SUNNY     55  31  40 N21G30    30.23R
GARDEN CITY    SUNNY     50  26  39 N26G37    30.24S
GREAT BEND     SUNNY     49  24  37 N23G31    30.22R
LIBERAL        SUNNY     53  26  35 N26G32    30.22R
PRATT          SUNNY     51  26  37 N28       30.19R
$$

KSZ066>073-081>083-090>101-212000-
SOUTHEAST KANSAS

CITY           SKY/WX    TMP DP  RH WIND       PRES   REMARKS
CHANUTE        SUNNY     57  33  40 N18G26    30.10R
COFFEYVILLE    PTSUNNY   59  33  37 N20G28    30.05R
HUTCHINSON     SUNNY     52  27  38 N22G31    30.18R
MEDICINE LODGE   N/A     54  30  40 N30G47    30.14R
NEWTON         SUNNY     51  27  39 N28G38    30.16R
PARSONS        MOSUNNY   60  31  33 N15       30.08R
WICHITA INTL   MOSUNNY   56  30  37 N20G30    30.14R
WICHITA JABRA  SUNNY     54  29  38 N28G37    30.14R
WICHITA MCCONL SUNNY     55  28  34 NE28G37   30.13R
WINFIELD       SUNNY     57  31  37 N25G40    30.12R
$$

KSZ007>012-019>026-033>040-048>060-102>105-212000-
NORTHEAST KANSAS

CITY           SKY/WX    TMP DP  RH WIND       PRES   REMARKS
CONCORDIA      SUNNY     45  14  28 N20G30    30.25R
EMPORIA        SUNNY     51  26  37 N22G32    30.15R
LAWRENCE       SUNNY     51  19  28 NW20      30.14R
MANHATTAN      SUNNY     48  12  23 N14G26    30.22R
MARYSVILLE     SUNNY     45  12  26 N22G28    30.22R
OLATHE IND     SUNNY     50  24  36 N23G31    30.11R
OLATHE EXE     SUNNY     49  22  34 N20G29    30.10R
SALINA         SUNNY     51  27  39 N23G30    30.22R
TOPEKA BILLARD SUNNY     50  19  29 NW23G31   30.17R
TOPEKA FORBES  SUNNY     51  16  24 N29G35    30.14R
$$




USA.gov is the U.S. government's official web portal to all federal, state and local government web resources and services.